sat.trackr.live / text

‹ back to catalog

STARLINK-34277

NORAD 64156 · 2025-112L

PAYLOAD ACTIVE UNKNOWN

§ Identity

Operator
Country
US
Launch date
2025-05-27
Launch site
AFWTR
Launch vehicle
Mass (kg)
RCS (m²)

Purposes: comms

External: N2YO · Heavens-Above · Gunter

§ Orbital elements

Epoch: 2026-05-25T02:22:12.914112Z

Period
95.64 min
Inclination
97.4493°
Eccentricity
0.0000996
Mean motion
15.05649111 rev/d
Perigee alt
548.8 km
Apogee alt
550.2 km
Semi-major
6,927.7 km
B*
6.5763e-5
RAAN
196.4442°
Arg perigee
162.5737°
Mean anomaly
197.5524°
Rev number
5,480

§ Raw data

STARLINK-342771 64156U 25112L   26145.09876058  .00000890  00000+0  65763-4 0  99912 64156  97.4493 196.4442 0000996 162.5737 197.5524 15.05649111 54808

JSON: /api/v1/satellites/64156 · /tle

For live sub-satellite position, see the globe view (requires WebGL).

§ Visibility from observer

Set your observer location to see the next 7 days of passes ≥ 10°. The values pass through the URL so the page stays shareable.

No JS? Fill the form by hand. The geolocation button needs JavaScript.